Погода в Гунде

Россия / Республика Бурятия     52°47′07″N   111°43′32″E
темп.,
°C
ветер,
м/с
пор.,
м/с
влажн.,
%
обл.,
%
осадки,
мм/ч
давл.,
гПа
погр.,
м
2 марта, вт
вт223:00−24ююз239677 0.0 102520
02:00−25юз229886 0.0 102320
05:00−26ююз129988 0.0 102120
08:00−26юз119579 0.0 102020
11:00−19юз238193 0.0 1016249
14:00−13юз468297 0.0 1011483
17:00−14юз498799 0.0 1010359
20:00−18юз459299 0.0 101174
3 марта, ср
ср323:00−19юз349551 0.0 101159
02:00−20юз349950 0.0 101137
05:00−21юз3310083 0.0 101126
08:00−19юз349892 0.0 101175
11:00−13юз4592100 0.0 1008266
14:00−8з61082100 0.1 10061223
17:00−11зсз7127277 0.3 1008872
20:00−18з5137839 0.3 1013296
4 марта, чт
чт423:00−20з5137733 0.0 1016318
02:00−23з5108216 0.0 1019193
05:00−26з58840 0.0 1022145
08:00−29зсз238420 0.0 102728
11:00−22зсз347470 0.0 1028498
14:00−19зсз456876 0.0 10291110
17:00−19зсз477480 0.0 1031357
20:00−27зсз337946 0.0 103725
5 марта, пт
пт523:00−30ссз128041 0.0 104119
02:00−32сз008450 0.0 104419
05:00−33юз11850 0.0 104619
08:00−33юз11830 0.0 104719
11:00−26ююз237971 0.0 1043260
14:00−20юз357560 0.0 1038433
17:00−19ююз11830 0.0 103565
20:00−24юв11870 0.0 103720
6 марта, сб
сб623:00−22св129066 0.0 103520
02:00−23св239683 0.0 103321
05:00−24св239998 0.1 103230
08:00−23св239899 0.1 1032100
11:00−19ююв1191100 0.0 1029202
14:00−12юз588899 0.0 1026380
17:00−9юз7118561 0.0 1024392
20:00−14зюз479031 0.0 102788